This is the latest recevied weather packets stored in our database for station/object N0FDH. If no packets are shown the sender has not sent any weather packets the latest 1 day(s).
| Time | Temp. | Humidity | Pressure | Rain* | Wind** | Luminosity | Snow |
|---|---|---|---|---|---|---|---|
| 1778013494 | 7.22° C | 47% | 1009.6 hPa | 0 mm | 2.68 m/s, 249° | 128 W/m² | - |
| 1778013190 | 7.78° C | 46% | 1009.6 hPa | 0 mm | 4.02 m/s, 289° | 163 W/m² | - |
| 1778012886 | 7.22° C | 46% | 1009.6 hPa | 0 mm | 3.13 m/s, 246° | 190 W/m² | - |
| 1778012582 | 7.78° C | 51% | 1009.6 hPa | 0 mm | 2.68 m/s, 244° | 229 W/m² | - |
| 1778012279 | 7.22° C | 45% | 1009.7 hPa | 0 mm | 1.34 m/s, 304° | 188 W/m² | - |
| 1778011976 | 7.22° C | 48% | 1009.7 hPa | 0 mm | 1.34 m/s, 263° | 197 W/m² | - |
| 1778011675 | 7.22° C | 51% | 1009.7 hPa | 0 mm | 1.79 m/s, 171° | 210 W/m² | - |
| 1778011372 | 7.22° C | 49% | 1009.6 hPa | 0 mm | 4.02 m/s, 278° | 146 W/m² | - |
| 1778011067 | 6.67° C | 47% | 1009.8 hPa | 0 mm | 2.24 m/s, 278° | 116 W/m² | - |
| 1778010765 | 7.22° C | 47% | 1009.6 hPa | 0 mm | 3.58 m/s, 314° | 165 W/m² | - |
| 1778010462 | 7.22° C | 48% | 1009.6 hPa | 0 mm | 3.13 m/s, 318° | 201 W/m² | - |
| 1778010158 | 7.22° C | 48% | 1009.6 hPa | 0 mm | 3.58 m/s, 291° | 223 W/m² | - |
| 1778009853 | 7.22° C | 50% | 1009.8 hPa | 0 mm | 2.68 m/s, 300° | 177 W/m² | - |
| 1778009552 | 7.22° C | 48% | 1009.9 hPa | 0 mm | 2.68 m/s, 298° | 416 W/m² | - |
| 1778009250 | 6.67° C | 51% | 1009.8 hPa | 0 mm | 2.24 m/s, 280° | 316 W/m² | - |
| 1778008947 | 6.67° C | 50% | 1009.9 hPa | 0 mm | 1.34 m/s, 308° | 206 W/m² | - |
| 1778008645 | 6.67° C | 51% | 1009.9 hPa | 0 mm | 1.79 m/s, 243° | 242 W/m² | - |
| 1778008344 | 6.67° C | 51% | 1009.8 hPa | 0 mm | 2.24 m/s, 260° | 188 W/m² | - |
| 1778008039 | 6.67° C | 49% | 1009.8 hPa | 0 mm | 3.58 m/s, 268° | 198 W/m² | - |
| 1778007739 | 6.67° C | 50% | 1009.8 hPa | 0 mm | 2.68 m/s, 269° | 228 W/m² | - |
| 1778007436 | 6.67° C | 50% | 1009.9 hPa | 0 mm | 2.24 m/s, 316° | 172 W/m² | - |
| 1778007132 | 6.67° C | 50% | 1009.8 hPa | 0 mm | 3.13 m/s, 232° | 188 W/m² | - |
| 1778006828 | 6.67° C | 54% | 1009.8 hPa | 0 mm | 1.79 m/s, 284° | 281 W/m² | - |
| 1778006526 | 6.67° C | 53% | 1009.8 hPa | 0 mm | 2.24 m/s, 266° | 276 W/m² | - |
| 1778006222 | 6.67° C | 53% | 1009.6 hPa | 0 mm | 3.13 m/s, 238° | 146 W/m² | - |
* Rain latest hour (hover to see other rain measurements)
** Current wind speed in m/s (hover to see current wind gust speed)